Phnom Penh, Cambodia

3:03 PM +07 on March 27, 2017 (GMT +0700)
Pochentong International

Weather History for VDPP - June, 2013

Change the Weather History Date:

Thursday, June 13, 2013

  Actual Average Record
Temperature  
Mean Temperature 86 °F -  
Max Temperature 91 °F 89 °F 98 °F (2015)
Min Temperature 80 °F 77 °F 75 °F (2008)
Cooling Degree Days 20    
Growing Degree Days 36 (Base 50)    
Moisture  
Dew Point 73 °F    
Average Humidity 68    
Maximum Humidity 84    
Minimum Humidity 52    
Precipitation  
Precipitation 0.00 in - - ()
Sea Level Pressure  
Sea Level Pressure 29.62 in    
Wind  
Wind Speed 6 mph ()    
Max Wind Speed 20 mph    
Max Gust Speed -    
Visibility 5.7 miles    
Events Rain    
Averages and records for this station are not official NWS values.
T = Trace of Precipitation, MM = Missing Value Source: Averaged Metar Reports

Daily Weather History Graph

Daily Weather History Graph

Search for Another Location

Airport or City:

Trip Planner

Search our weather history database for the weather conditions in past years. The results will help you decide how hot, cold, wet, or windy it might be!

Date:

Astronomy

Jun. 13, 2013 Rise Set
Actual Time 5:36 AM +07 6:24 PM +07
Civil Twilight 5:13 AM +07 6:47 PM +07
Nautical Twilight 4:46 AM +07 7:15 PM +07
Astronomical Twilight 4:18 AM +07 7:42 PM +07
Moon 9:10 AM +07 (6/13) 9:52 PM +07 (6/13)
Length of Visible Light 13h 34m
Length of Day
12h 47m
Waxing Crescent, 18% of the Moon is Illuminated
Jun 13
Waxing Crescent
Jun 17
First Quarter
Jun 23
Full
Jun 30
Last Quarter
Jul 8
New

Hourly Weather History & Observations

Time (+07) Temp. Heat Index Dew Point Humidity Pressure Visibility Wind Dir Wind Speed Gust Speed Precip Events Conditions
12:30 AM 82.4 °F 90.9 °F 77.0 °F 84% 29.65 in 5.6 mi SE 3.5 mph - N/A   Scattered Clouds
1:00 AM 82.4 °F 90.9 °F 77.0 °F 84% 29.65 in 5.6 mi SSW 5.8 mph - N/A   Scattered Clouds
6:00 AM 80.6 °F 85.4 °F 73.4 °F 79% 29.62 in 5.6 mi WSW 3.5 mph - N/A   Scattered Clouds
7:00 AM 82.4 °F 89.5 °F 75.2 °F 79% 29.65 in 6.2 mi WSW 3.5 mph - N/A   Scattered Clouds
7:30 AM 82.4 °F 88.2 °F 73.4 °F 74% 29.65 in 6.2 mi South 4.6 mph - N/A   Scattered Clouds
8:00 AM 84.2 °F 92.3 °F 75.2 °F 74% 29.65 in 6.2 mi Variable 2.3 mph - N/A   Scattered Clouds
8:30 AM 84.2 °F 90.9 °F 73.4 °F 70% 29.65 in 6.2 mi South 3.5 mph - N/A   Scattered Clouds
9:00 AM 86.0 °F 93.4 °F 73.4 °F 66% 29.65 in 6.2 mi SW 6.9 mph - N/A   Scattered Clouds
9:30 AM 86.0 °F 91.8 °F 71.6 °F 62% 29.65 in 6.2 mi South 9.2 mph - N/A   Scattered Clouds
10:00 AM 86.0 °F 93.4 °F 73.4 °F 66% 29.68 in 6.2 mi SW 6.9 mph - N/A   Scattered Clouds
10:30 AM 86.0 °F 93.4 °F 73.4 °F 66% 29.68 in 6.2 mi SW 9.2 mph - N/A   Scattered Clouds
11:00 AM 87.8 °F 93.8 °F 71.6 °F 58% 29.65 in 6.2 mi West 10.4 mph - N/A   Scattered Clouds
11:30 AM 87.8 °F 95.6 °F 73.4 °F 62% 29.65 in 6.2 mi SSW 6.9 mph - N/A   Scattered Clouds
12:00 PM 87.8 °F 93.8 °F 71.6 °F 58% 29.62 in 6.2 mi WSW 6.9 mph - N/A   Scattered Clouds
12:30 PM 89.6 °F 96.2 °F 71.6 °F 55% 29.62 in 6.2 mi WSW 8.1 mph - N/A   Scattered Clouds
1:00 PM 89.6 °F 96.2 °F 71.6 °F 55% 29.62 in 6.2 mi WSW 8.1 mph - N/A   Scattered Clouds
1:30 PM 91.4 °F 98.4 °F 71.6 °F 52% 29.59 in 6.2 mi WSW 6.9 mph - N/A   Scattered Clouds
2:00 PM 91.4 °F 98.4 °F 71.6 °F 52% 29.59 in 6.2 mi SSW 9.2 mph - N/A   Scattered Clouds
2:30 PM 91.4 °F 98.4 °F 71.6 °F 52% 29.59 in 6.2 mi SW 10.4 mph - N/A   Scattered Clouds
3:00 PM 91.4 °F 98.4 °F 71.6 °F 52% 29.56 in 6.2 mi SSW 10.4 mph - N/A   Scattered Clouds
3:30 PM 91.4 °F 98.4 °F 71.6 °F 52% 29.56 in 6.2 mi SSW 12.7 mph - N/A   Scattered Clouds
4:00 PM 91.4 °F 98.4 °F 71.6 °F 52% 29.53 in 6.2 mi SSW 19.6 mph - N/A   Scattered Clouds
4:30 PM 91.4 °F 98.4 °F 71.6 °F 52% 29.53 in 6.2 mi SSW 16.1 mph - N/A   Scattered Clouds
5:00 PM 89.6 °F 98.2 °F 73.4 °F 59% 29.56 in 5.6 mi SSW 17.3 mph - N/A   Scattered Clouds
5:30 PM 87.8 °F 92.6 °F 69.8 °F 55% 29.59 in 5.0 mi West 15.0 mph - N/A Rain Rain
6:00 PM 87.8 °F 93.8 °F 71.6 °F 58% 29.59 in 5.0 mi West 12.7 mph - N/A Rain Rain
7:30 PM 84.2 °F 92.3 °F 75.2 °F 74% 29.62 in 5.0 mi NW 5.8 mph - N/A Rain Light Rain
8:00 PM 82.4 °F 89.5 °F 75.2 °F 79% 29.62 in 4.3 mi WNW 4.6 mph - N/A Rain Rain
8:30 PM 82.4 °F 89.5 °F 75.2 °F 79% 29.62 in 4.3 mi West 4.6 mph - N/A Rain Light Rain
9:00 PM 80.6 °F 86.2 °F 75.2 °F 84% 29.65 in 4.3 mi West 3.5 mph - N/A Rain Light Rain
9:30 PM 80.6 °F 86.2 °F 75.2 °F 84% 29.65 in 5.0 mi SSW 6.9 mph - N/A Rain Light Rain
10:00 PM 80.6 °F 86.2 °F 75.2 °F 84% 29.65 in 5.0 mi SSW 6.9 mph - N/A Rain Light Rain
10:30 PM 80.6 °F 86.2 °F 75.2 °F 84% 29.65 in 5.0 mi SW 6.9 mph - N/A Rain Light Rain
11:00 PM 80.6 °F 86.2 °F 75.2 °F 84% 29.65 in 5.0 mi SW 6.9 mph - N/A Rain Light Rain
11:30 PM 80.6 °F 86.2 °F 75.2 °F 84% 29.65 in 5.0 mi SSW 5.8 mph - N/A Rain Light Rain